Live-Position
3D-Globus wird geladen...
Über Starlink 3563
Group: 3 satellites
Beschreibung wird geladen...
Nächste Überflüge
Passes for default location (London). Set your location on the main map for personalized predictions.
Höhenverlauf
Loading altitude history...
No altitude history available
Zweizeiliger Elementsatz
1 51858U 22022G 26127.26171231 -.00000378 00000-0 -56534-5 0 9994
2 51858 53.2164 116.1827 0001351 84.4197 275.6950 15.08833856231860
Epoch: 7. Mai 2026 •
Age: 11 hours
Aktueller Status
Höhe 557.4 km
Geschwindigkeit 7.58 km/s
Subsatellitenpunkt -48.75°S,
65.91°W
Startdatum 3. März 2022
Alter 4.1 years
Typ internet
Startgruppe
Falcon 9 •
Group 4-9 •
45 satellites
Starlink 3542
51852
Starlink 3541 51854
Starlink 3545 51855
Starlink 3568 51856
Starlink 3571 51857
Starlink 3560 51859
Starlink 3559 51860
Starlink 3562 51861
Starlink 3508 51862
Starlink 3555 51863
Starlink 3548 51864
Starlink 3503 51865
Starlink 3553 51866
Starlink 3590 51867
Starlink 3578 51868
Starlink 3588 51869
Starlink 3591 51870
Starlink 3567 51871
Starlink 3554 51872
Starlink 3582 51873
...and 24 more
Technische Details
Klassifizierung Payload
Masse 297.00 kg
Trockenmasse 275.00 kg
Gesamtmasse 297.00 kg
Länge 0.20 m
Durchmesser 2.80 m
Spannweite 9.00 m
Form Box + pan
Hersteller SPXS
Bus-Typ Starlink
Phasenstatus In Orbit
Besitzer/Staat SPXS/US
Most Searched
Loading...